Regional Weather Roundup
Issued by NWS

Home | Current Version | Previous Version | Graphics & Text | Print | Product List | Glossary On
Versions: 1 2 3 4 5 6 7 8 9 10 11 12 13 14 15 16 17 18 19 20 21 22 23 24 25 26 27 28 29 30 31 32 33 34 35 36 37 38 39 40 41 42 43 44 45 46 47 48 49 50
000
ASUS45 KABQ 280501
RWRNM
NEW MEXICO REGIONAL WEATHER ROUNDUP
NATIONAL WEATHER SERVICE ALBUQUERQUE NM
1100 PM MDT MON MAR 27 2017

NOTE: "FAIR" MEANS FEW OR NO CLOUDS BELOW 12,000 FEET AGL WITH NO
       SIGNIFICANT WEATHER OR OBSTRUCTIONS TO VISION.

      THIS PRODUCT IS RELEASED AS TWO VERSIONS.  ONE VERSION NEAR
      THE TOP OF THE HOUR CONTAINING PRELIMINARY DATA FROM ALBUQUERQUE
      AND OTHER STATIONS.  A FINAL VERSION WITH ADDITIONAL DATA IS
      ISSUED ABOUT 10 MINUTES AFTER THE HOUR.

NMZ501-503-504-510>518-280600-
NORTHWEST PLATEAU/NORTHCENTRAL MOUNTAINS

CITY           SKY/WX    TMP DP  RH WIND       PRES   REMARKS
FARMINGTON     CLOUDY    45  39  79 NW13      29.85R
LOS ALAMOS     LGT RAIN  42  38  86 N5        29.94S
SANTA FE       CLOUDY    47  40  76 N8        29.89S
TAOS             N/A     41  34  75 CALM      29.93F
ANGEL FIRE     DRIZZLE   38  32  79 CALM      29.97S

$$
NMZ402-403-502-505>509-280600-
WESTCENTRAL MOUNTAINS/SOUTHWEST MOUNTAINS

CITY           SKY/WX    TMP DP  RH WIND       PRES   REMARKS
GALLUP         LGT RAIN  47  30  51 SW15G23   29.88R
GRANTS         FAIR      38  32  76 S7        29.92S WCI  33
SILVER CITY    CLOUDY    51  28  41 NW7       29.88F

$$
NMZ407-409-411-412-280600-
SOUTHERN DESERTS

CITY           SKY/WX    TMP DP  RH WIND       PRES   REMARKS
DEMING         MOCLDY    63  30  28 W8        29.83F
LAS CRUCES     FAIR      65  28  24 W12       29.84S
HOLLOMAN AFB   FAIR      68  26  20 S10       29.82F
ALAMOGORDO     MOCLDY    66  25  20 S9        29.81S
T OR C         FAIR      63  28  26 SW6       29.81F

$$
NMZ519>523-280600-
CENTRAL VALLEYS/CENTRAL HIGHLANDS

CITY           SKY/WX    TMP DP  RH WIND       PRES   REMARKS
ALBUQUERQUE    MOCLDY    53  37  54 N6        29.87S
MORIARTY ARPT  CLOUDY    49  34  56 N5        29.90S
CLINES CORNERS CLOUDY    46  30  53 NW9       29.92S
BELEN          CLOUDY    52  35  52 NE6       29.87F
SOCORRO        MOCLDY    58  32  37 N13       29.84R

$$
NMZ524>526-539-540-280600-
SOUTHCENTRAL MOUNTAINS

CITY           SKY/WX    TMP DP  RH WIND       PRES   REMARKS
RUIDOSO        NOT AVBL

$$
NMZ527>531-280600-
NORTHEAST HIGHLANDS/NORTHEAST PLAINS

CITY           SKY/WX    TMP DP  RH WIND       PRES   REMARKS
LAS VEGAS      CLOUDY    50  26  39 S7        29.89R
RATON          CLOUDY    49  34  56 NE5       29.86S
CLAYTON        FAIR      51  37  58 SE12      29.85S

$$
NMZ532>537-280600-
EASTCENTRAL PLAINS

CITY           SKY/WX    TMP DP  RH WIND       PRES   REMARKS
TUCUMCARI      FAIR      65  30  27 S20       29.78F
CANNON AFB     CLOUDY    55  34  44 SE12      29.84S
CLOVIS AIRPORT FAIR      57  32  38 SE17      29.85S

$$
NMZ028-029-538-280600-
SOUTHEAST PLAINS

CITY           SKY/WX    TMP DP  RH WIND       PRES   REMARKS
ROSWELL        FAIR      68  22  17 S12         N/A
ARTESIA        FAIR      68  28  22 SE12      29.80S
CARLSBAD       FAIR      62  27  26 S10       29.79S
HOBBS          FAIR      54  27  35 E3        29.84F


$$




USA.gov is the U.S. government's official web portal to all federal, state and local government web resources and services.